Regional Weather Roundup
Issued by NWS Little Rock, AR

Home | Current Version | Previous Version | Text Only | Print | Product List | Glossary Off
Versions: 1 2 3 4 5 6 7 8 9 10 11 12 13 14 15 16 17 18 19 20 21 22 23 24 25 26 27 28 29 30 31 32 33 34 35 36 37 38 39 40 41 42 43 44 45 46 47 48 49 50

000
ASUS44 KLZK 241205
RWRLZK

WEATHER ROUNDUP FOR ARKANSAS
NATIONAL WEATHER SERVICE LITTLE ROCK AR
700 AM CDT TUE MAY 24 2016

NOTE: "FAIR" INDICATES FEW OR NO CLOUDS BELOW 12,000 FEET WITH NO
SIGNIFICANT WEATHER AND/OR OBSTRUCTIONS TO VISIBILITY.

ARZ001-003-010-029-241300-
NORTHWEST ARKANSAS

CITY           SKY/WX    TMP DP  RH WIND       PRES   REMARKS
FAYETTEVILLE   CLOUDY    68  65  90 CALM      29.97R
6HR MIN TEMP:  59; 6HR MAX TEMP:  69;

FORT SMITH     CLOUDY    69  64  84 NE6       29.95R
6HR MIN TEMP:  67; 6HR MAX TEMP:  69;

HARRISON       CLOUDY    67  62  84 SE8       29.99R
6HR MIN TEMP:  62; 6HR MAX TEMP:  67;

BENTONVILLE    CLOUDY    68  61  77 S6        29.98R
6HR MIN TEMP:  63; 6HR MAX TEMP:  68;

ROGERS         MOCLDY    65  63  93 SE8       29.98R
6HR MIN TEMP:  63; 6HR MAX TEMP:  65;

SILOAM SPGS    CLOUDY    66  57  72 SE6       29.98R
6HR MIN TEMP:  63; 6HR MAX TEMP:  66;

HIGHFILL       MOCLDY    67  65  93 S6        29.97R
6HR MIN TEMP:  63; 6HR MAX TEMP:  67; 6HR PCP: TRACE;

SPRINGDALE     CLOUDY    68  64  88 S3        30.00R
$$

ARZ004-005-016-241300-
NORTH CENTRAL ARKANSAS

CITY           SKY/WX    TMP DP  RH WIND       PRES   REMARKS
BATESVILLE     CLOUDY    66  61  82 SE6       30.02R
6HR MIN TEMP:  64; 6HR MAX TEMP:  68; 6HR PCP:  0.12;

FLIPPIN        CLOUDY   N/A N/A N/A CALM      29.96R
MTN HOME       CLOUDY    64  61  90 SE5       29.98R
6HR MIN TEMP:  61; 6HR MAX TEMP:  64; 6HR PCP: TRACE;

$$

ARZ040-041-241300-
WEST CENTRAL ARKANSAS

CITY           SKY/WX    TMP DP  RH WIND       PRES   REMARKS
MENA           CLOUDY    73  70  88 S5        29.99R
MOUNT IDA      CLOUDY    72  65  78 VRB5      29.96R
6HR MIN TEMP:  65; 6HR MAX TEMP:  73;

$$

ARZ009-017-025-026-028-241300-
NORTHEAST ARKANSAS

CITY           SKY/WX    TMP DP  RH WIND       PRES   REMARKS
CORNING          N/A     68  59  73 S5        30.01R
JONESBORO      CLOUDY    68  58  70 S3        30.02R
6HR MIN TEMP:  64; 6HR MAX TEMP:  68;

NEWPORT        TSTM      66  61  84 S3        30.03R
6HR MIN TEMP:  64; 6HR MAX TEMP:  69; 6HR PCP:  0.01;

WALNUT RIDGE   CLOUDY    68  55  64 S7        30.00R
6HR MIN TEMP:  64; 6HR MAX TEMP:  70;

BLYTHEVILLE    CLOUDY    70  57  63 S7        30.03R
6HR MIN TEMP:  66; 6HR MAX TEMP:  70;

$$

ARZ022-023-033-042-044-241300-
CENTRAL ARKANSAS

CITY           SKY/WX    TMP DP  RH WIND       PRES   REMARKS
LITTLE ROCK    PTSUNNY   68  62  81 S5        30.00R
6HR MIN TEMP:  64; 6HR MAX TEMP:  69;

N LITTLE ROCK    N/A     68  62  78 SW6       29.98R
6HR MIN TEMP:  66; 6HR MAX TEMP:  68;

JACKSONVILLE   MOSUNNY   65  64  96 NE2       29.99R
6HR MIN TEMP:  61; 6HR MAX TEMP:  65;

SEARCY         SUNNY     63  63 100 NE3       30.02R
6HR MIN TEMP:  61; 6HR MAX TEMP:  63;

HOT SPRINGS    CLOUDY    72  64  76 CALM      30.00R
6HR MIN TEMP:  65; 6HR MAX TEMP:  73;

RUSSELLVILLE   CLOUDY    69  62  78 S3        29.97R
6HR MIN TEMP:  63; 6HR MAX TEMP:  69;

CLINTON        CLOUDY    63  63 100 CALM      30.01R
$$

ARZ036-241300-
EAST ARKANSAS

CITY           SKY/WX    TMP DP  RH WIND       PRES   REMARKS
WEST MEMPHIS   MOSUNNY   68  58  70 SE5       30.02R
6HR MIN TEMP:  64; 6HR MAX TEMP:  68; 6HR PCP: TRACE;

$$

ARZ050-053-066-070-073-241300-
SOUTHWEST ARKANSAS

CITY           SKY/WX    TMP DP  RH WIND       PRES   REMARKS
ARKADELPHIA    FAIR      67  67 100 CALM      30.00R
6HR MIN TEMP:  64; 6HR MAX TEMP:  68;

CAMDEN         PTCLDY    64  59  82 CALM      30.01R FOG
TEXARKANA      CLOUDY    69  66  90 SE6       29.97R
6HR MIN TEMP:  68; 6HR MAX TEMP:  73;

EL DORADO      PTCLDY    65  63  93 SE6       30.01R
6HR MIN TEMP:  64; 6HR MAX TEMP:  69;

DE QUEEN       CLOUDY    70  67  90 E3        29.96R
6HR MIN TEMP:  67; 6HR MAX TEMP:  72;

$$

ARZ056-057-069-241300-
SOUTHEAST ARKANSAS

CITY           SKY/WX    TMP DP  RH WIND       PRES   REMARKS
PINE BLUFF     CLOUDY    65  61  87 SE3       30.03R
6HR MIN TEMP:  63; 6HR MAX TEMP:  68;

STUTTGART      SUNNY     70  55  60 S9        30.02R
6HR MIN TEMP:  66; 6HR MAX TEMP:  70;

MONTICELLO     MOSUNNY   67  58  72 CALM      30.03R
6HR MIN TEMP:  62; 6HR MAX TEMP:  69;


$$





USA.gov is the U.S. government's official web portal to all federal, state and local government web resources and services.